Regional Weather Roundup
Issued by NWS Green Bay, WI

Home | Current Version | Previous Version | Graphics & Text | Print | Product List | Glossary Off
Versions: 1 2 3 4 5 6 7 8 9 10 11 12 13 14 15 16 17 18 19 20 21 22 23 24 25 26 27 28 29 30 31 32 33 34 35 36 37 38 39 40 41 42 43 44 45 46 47 48 49 50

737
ASUS43 KGRB 031511
RWRGRB

NORTH-CENTRAL AND NORTHEAST WISCONSIN REGIONAL WEATHER ROUNDUP
NATIONAL WEATHER SERVICE GREEN BAY WI
900 AM CST SAT DEC 03 2016

WIZ005-009-010>012-018-019-031600-
NORTH CENTRAL WISCONSIN

CITY           SKY/WX    TMP DP  RH WIND       PRES   REMARKS
IRONWOOD       LGT SNOW  28  27  93 SW6       30.26S FOG
MANITOWISH WTR CLOUDY    26  26  99 SW3       30.24S
ARBOR VITAE    CLOUDY    28  25  89 CALM      30.24F
EAGLE RIVER    CLOUDY    26  24  93 W7        30.24S
LAND O LAKES   CLOUDY    28  26  91 CALM      30.25S
RHINELANDER    CLOUDY    27  22  81 CALM      30.26S
PHILLIPS       CLOUDY    27  25  94 SW6       30.25S
ANTIGO         CLOUDY    26  24  92 W8        30.27S
TOMAHAWK       CLOUDY    27  22  82 CALM      30.27S
MERRILL        CLOUDY    27  24  88 CALM      30.28S
$$

WIZ013-073-031600-
NORTHEAST WISCONSIN

CITY           SKY/WX    TMP DP  RH WIND       PRES   REMARKS
IRON MOUNTAIN  CLOUDY    32  25  75 W5        30.25R
MARINETTE      CLOUDY    33  28  81 W7        30.30R
OCONTO         CLOUDY    32  26  77 W10       30.31R
$$

WIZ017-030-035>037-045-031600-
CENTRAL WISCONSIN

CITY           SKY/WX    TMP DP  RH WIND       PRES   REMARKS
MEDFORD        CLOUDY    27  20  75 CALM      30.26S
WAUSAU         CLOUDY    29  22  75 NW7       30.27S
MOSINEE        CLOUDY    28  25  86 W6        30.28F
MARSHFIELD     FLURRIES  28  23  81 W8        30.26F
WISC RAPIDS    CLOUDY    30  23  75 W6        30.30F
STEVENS POINT  CLOUDY    28  21  74 CALM      30.29F
WAUPACA        CLOUDY    33  24  69 CALM      30.31S
SHAWANO        CLOUDY    32  25  74 W6        30.31S
CLINTONVILLE   CLOUDY    32  23  69 NW5       30.30F
WAUTOMA        CLOUDY    31  24  75 CALM      30.31F
$$

WIZ038-039-048-051-031600-
FOX VALLEY

CITY           SKY/WX    TMP DP  RH WIND       PRES   REMARKS
NWS GREEN BAY  CLOUDY    33  26  75 W8        30.31S
APPLETON       CLOUDY    30  21  69 W8        30.29F
OSHKOSH        CLOUDY    31  23  72 W6        30.30F
FOND DU LAC    CLOUDY    32  22  66 W5        30.31F
$$

WIZ022-050-052-031600-
EAST CENTRAL WISCONSIN

CITY           SKY/WX    TMP DP  RH WIND       PRES   REMARKS
EPHRAIM        CLOUDY    34  31  89 W5        30.28R
WASHINGTON ISL CLOUDY    36  29  77 NW6       30.27R
STURGEON BAY   CLOUDY    33  28  81 W10       30.30R
MANITOWOC      CLOUDY    32  24  72 MISG      30.31S
SHEBOYGAN      CLOUDY    31  24  75 NW8       30.32F
$$

LMZ563-521-522-541>543-031600-
LAKESHORE

STATION/POSITION TIME  TEMP    WIND        PRES    VSBY  WAVE
                       AIR SEA DIR/SP/G                  HT/PER
                 (UTC) (F)     (DEG/KT/KT) (MB)    (MI)  (FT/S)
SHEBOYGAN LKSHOR 1500   32     260/  9/ 10 1027.3F
KEWAUNEE LKSHORE 1442   32     280/  8/ 12 1025.6R
ALGOMA MARINA    1451          260/  7/ 11   N/A
NORTHPORT PIER   1440   37     310/ 10/ 13 1025.1R
CHAMBERS ISLAND  1440   35     220/  5/  8 1025.1R
MENOMINEE LKSHOR 1442   33     220/  7/ 10 1025.0R
$$




USA.gov is the U.S. government's official web portal to all federal, state and local government web resources and services.